Location: Heidgraben
(53.7081°N, 9.6576°E)
Time: 21:02:51
(UTC+00:00)

COSMOS 2428 - Pass Details

Date: 05 July 2020
Orbit: 844 x 859 km, 70.9° (Epoch: 14 August)

Event Time Altitude Azimuth Distance (km) Brightness Sun altitude
Rises 21:59:09 0° 216° (SW) 3,393 5.5 -11.3°
Reaches altitude 10° 22:01:36 10° 218° (SW) 2,462 4.8 -11.5°
Maximum altitude 22:07:15 75° 304° (NW) 880 2.9 -11.7°
Drops below altitude 10° 22:12:57 10° 31° (NNE) 2,481 5.8 -12.0°
Sets 22:15:26 0° 33° (NNE) 3,422 6.5 -12.1°
